Weather History for LTCC - October, 2012

Change the Weather History Date:

Saturday, October 13, 2012

  Actual Average Record
Temperature  
Mean Temperature 65 °F -  
Max Temperature 78 °F 70 °F 89 °F (2002)
Min Temperature 52 °F 46 °F 44 °F (1998)
Growing Degree Days 15 (Base 50)    
Moisture  
Dew Point 41 °F    
Average Humidity 42    
Maximum Humidity 67    
Minimum Humidity 14    
Precipitation  
Precipitation 0.00 in 0.06 in - ()
Sea Level Pressure  
Sea Level Pressure 30.06 in    
Wind  
Wind Speed 5 mph ()    
Max Wind Speed 8 mph    
Max Gust Speed -    
Visibility 8.8 miles    
Events      
Averages and records for this station are not official NWS values.
T = Trace of Precipitation, MM = Missing Value Source: Averaged Metar Reports

Daily Weather History Graph

Daily Weather History Graph

Search for Another Location

Airport or City:

Trip Planner

Search our weather history database for the weather conditions in past years. The results will help you decide how hot, cold, wet, or windy it might be!

Date:

Astronomy

Oct. 13, 2012 Rise Set
Actual Time 6:25 AM EEST 5:44 PM EEST
Civil Twilight 5:59 AM EEST 6:10 PM EEST
Nautical Twilight 5:29 AM EEST 6:41 PM EEST
Astronomical Twilight 4:58 AM EEST 7:11 PM EEST
Moon 3:53 AM EEST (10/13) 4:14 PM EEST (10/13)
Length of Visible Light 12h 11m
Length of Day
11h 18m
Waning Crescent, 6% of the Moon is Illuminated
Oct 13
Waning Crescent
Oct 15
New
Oct 22
First Quarter
Oct 29
Full
Nov 7
Last Quarter

Hourly Weather History & Observations

Time (EEST) Temp. Dew Point Humidity Pressure Visibility Wind Dir Wind Speed Gust Speed Precip Events Conditions
12:20 AM 59.0 °F 42.8 °F 55% 30.06 in - WNW 6.9 mph - N/A   Clear
12:50 AM 59.0 °F 41.0 °F 51% 30.06 in - West 8.1 mph - N/A   Clear
1:20 AM 60.8 °F 41.0 °F 48% 30.06 in - WNW 8.1 mph - N/A   Clear
1:50 AM 57.2 °F 42.8 °F 59% 30.06 in - WNW 6.9 mph - N/A   Clear
2:20 AM 59.0 °F 41.0 °F 51% 30.06 in - WNW 6.9 mph - N/A   Clear
3:00 AM 57 °F 41 °F 45% 29.99 in 12 mi WNW 6.9 mph - -  
3:20 AM 55.4 °F 41.0 °F 58% 30.06 in - WNW 5.8 mph - N/A   Clear
3:50 AM 57.2 °F 41.0 °F 55% 30.06 in - WNW 6.9 mph - N/A   Clear
4:20 AM 55.4 °F 41.0 °F 58% 30.06 in - WNW 5.8 mph - N/A   Clear
4:50 AM 57.2 °F 41.0 °F 55% 30.06 in - WNW 5.8 mph - N/A   Clear
5:50 AM 53.6 °F 41.0 °F 62% 30.06 in - WNW 4.6 mph - N/A   Clear
6:20 AM 53.6 °F 41.0 °F 62% 30.06 in - West 5.8 mph - N/A   Clear
6:50 AM 53.6 °F 42.8 °F 67% 30.09 in - NW 6.9 mph - N/A   Clear
7:20 AM 57.2 °F 42.8 °F 59% 30.09 in - NW 4.6 mph - N/A   Clear
7:50 AM 62.6 °F 44.6 °F 52% 30.09 in - NW 3.5 mph - N/A   Clear
8:20 AM 66.2 °F 42.8 °F 43% 30.12 in - WNW 4.6 mph - N/A   Clear
8:50 AM 66.2 °F 41.0 °F 40% 30.12 in - NW 6.9 mph - N/A   Clear
9:00 AM 67 °F 42 °F 29% 30.05 in 12 mi NW 6.9 mph - -   Clear
9:20 AM 68.0 °F 41.0 °F 37% 30.12 in - NNW 5.8 mph - N/A   Clear
10:20 AM 71.6 °F 39.2 °F 31% 30.12 in - North 4.6 mph - N/A   Clear
10:50 AM 73.4 °F 41.0 °F 31% 30.12 in - WNW 3.5 mph - N/A   Clear
11:20 AM 73.4 °F 41.0 °F 31% 30.09 in - Variable 4.6 mph - N/A   Clear
11:50 AM 75.2 °F 41.0 °F 29% 30.09 in - Variable 3.5 mph - N/A   Clear
12:20 PM 75.2 °F 42.8 °F 31% 30.09 in - Variable 4.6 mph - N/A   Clear
12:50 PM 75.2 °F 42.8 °F 31% 30.06 in - East 6.9 mph - N/A   Clear
1:20 PM 77.0 °F 41.0 °F 28% 30.06 in - East 4.6 mph - N/A   Clear
1:50 PM 77.0 °F 41.0 °F 28% 30.06 in - Variable 4.6 mph - N/A   Clear
2:20 PM 77.0 °F 39.2 °F 26% 30.06 in - Variable 3.5 mph - N/A   Clear
3:00 PM 77 °F 37 °F 14% 29.98 in 12 mi NNE 3.5 mph - -   Scattered Clouds
3:20 PM 77.0 °F 37.4 °F 24% 30.04 in 6.2 mi Variable 2.3 mph - N/A   Mostly Cloudy
3:50 PM 78.8 °F 39.2 °F 24% 30.04 in 6.2 mi Variable 2.3 mph - N/A   Mostly Cloudy
4:50 PM 77.0 °F 39.2 °F 26% 30.04 in 6.2 mi NE 4.6 mph - N/A   Mostly Cloudy
5:20 PM 75.2 °F 41.0 °F 29% 30.04 in 6.2 mi ENE 3.5 mph - N/A   Mostly Cloudy
5:50 PM 73.4 °F 41.0 °F 31% 30.04 in 6.2 mi Calm Calm - N/A   Mostly Cloudy
6:50 PM 69.8 °F 42.8 °F 38% 30.04 in - East 2.3 mph - N/A   Clear
7:20 PM 69.8 °F 42.8 °F 38% 30.04 in - Calm Calm - N/A   Clear
7:50 PM 68.0 °F 42.8 °F 40% 30.06 in - Calm Calm - N/A   Clear
8:20 PM 66.2 °F 41.0 °F 40% 30.06 in - West 3.5 mph - N/A   Clear
8:50 PM 60.8 °F 41.0 °F 48% 30.06 in - WNW 6.9 mph - N/A   Clear
9:00 PM 62 °F 40 °F 33% 29.99 in 12 mi WNW 6.9 mph - -   Scattered Clouds
9:20 PM 60.8 °F 41.0 °F 48% 30.06 in - WNW 5.8 mph - N/A   Clear
9:50 PM 60.8 °F 39.2 °F 45% 30.06 in - WSW 5.8 mph - N/A   Clear
10:20 PM 60.8 °F 39.2 °F 45% 30.06 in - WNW 4.6 mph - N/A   Clear
10:50 PM 60.8 °F 39.2 °F 45% 30.06 in - NNW 5.8 mph - N/A   Clear
11:20 PM 57.2 °F 41.0 °F 55% 30.06 in - NW 4.6 mph - N/A   Clear
11:50 PM 55.4 °F 39.2 °F 54% 30.06 in - West 5.8 mph - N/A   Clear